| time (UTC) | temp F | wind direction | speed MPH | gust MPH | rain 1hr in | rain 24hr in | rain mn in | humidity % | barometer mb |
| 20260902050107 | 60 | 42 | 0.0 | 1.0 | 0.00 | 0.00 | 0.00 | ||
| 20260902043048 | 60 | 292 | 0.0 | 1.0 | 0.00 | 0.00 | 0.00 | ||
| 20260902040100 | 60 | 231 | 0.0 | 1.0 | 0.00 | 0.00 | 0.00 | ||
| 20260902033037 | 60 | 249 | 0.0 | 1.0 | 0.00 | 0.00 | 0.00 | ||
| 20260902023031 | 61 | 165 | 0.0 | 3.0 | 0.00 | 0.00 | 0.00 | ||
| 20260902020104 | 62 | 298 | 0.0 | 4.0 | 0.00 | 0.00 | 0.00 | ||
| 20260902013044 | 62 | 192 | 1.0 | 6.0 | 0.00 | 0.00 | 0.00 | ||
| 20260902010113 | 62 | 214 | 1.0 | 4.0 | 0.00 | 0.00 | 0.00 | ||
| 20260902000103 | 64 | 219 | 1.0 | 4.0 | 0.00 | 0.00 | 0.00 | ||
| 20260901233046 | 63 | 250 | 0.0 | 6.0 | 0.00 | 0.00 | 0.00 | ||
| 20260901230053 | 63 | 227 | 0.0 | 5.0 | 0.00 | 0.00 | 0.00 | ||
| 20260901223034 | 62 | 73 | 0.0 | 3.0 | 0.00 | 0.00 | 0.00 | ||
| 20260901213049 | 63 | 251 | 0.0 | 1.0 | 0.00 | 0.00 | 0.00 | ||
| 20260901210100 | 64 | 190 | 0.0 | 1.0 | 0.00 | 0.00 | 0.00 | ||
| 20260901203040 | 64 | 243 | 2.0 | 4.0 | 0.00 | 0.00 | 0.00 | ||
| 20260901193034 | 63 | 204 | 0.0 | 3.0 | 0.00 | 0.00 | 0.00 | ||
| 20260901183045 | 63 | 255 | 2.0 | 8.0 | 0.00 | 0.00 | 0.00 | ||
| 20260901180056 | 64 | 180 | 1.0 | 6.0 | 0.00 | 0.00 | 0.00 | ||
| 20260901170108 | 62 | 216 | 1.0 | 4.0 | 0.00 | 0.00 | 0.00 | ||
| 20260901160101 | 62 | 265 | 1.0 | 3.0 | 0.00 | 0.00 | 0.00 | ||
| 20260901153040 | 61 | 217 | 0.0 | 5.0 | 0.00 | 0.00 | 0.00 | ||
| 20260901150111 | 61 | 171 | 0.0 | 2.0 | 0.00 | 0.00 | 0.00 | ||
| 20260901143047 | 60 | 232 | 0.0 | 4.0 | 0.00 | 0.00 | 0.00 | ||
| 20260901133039 | 60 | 258 | 2.0 | 5.0 | 0.00 | 0.00 | 0.00 | ||
| 20260901130111 | 60 | 234 | 0.0 | 4.0 | 0.00 | 0.00 | 0.00 | ||
| 20260901120104 | 60 | 250 | 0.0 | 5.0 | 0.00 | 0.00 | 0.00 | ||
| 20260901110055 | 60 | 261 | 1.0 | 5.0 | 0.00 | 0.00 | 0.00 | ||
| 20260901103035 | 60 | 271 | 1.0 | 5.0 | 0.00 | 0.00 | 0.00 | ||
| 20260901093044 | 60 | 235 | 0.0 | 3.0 | 0.00 | 0.00 | 0.00 | ||
| 20260901083038 | 60 | 224 | 0.0 | 3.0 | 0.00 | 0.00 | 0.00 | ||
| 20260901073032 | 60 | 216 | 1.0 | 3.0 | 0.00 | 0.00 | 0.00 | ||
| 20260901070104 | 60 | 202 | 1.0 | 2.0 | 0.00 | 0.00 | 0.00 | ||
| 20260901063041 | 59 | 237 | 1.0 | 4.0 | 0.00 | 0.00 | 0.00 | ||
| 20260901060108 | 60 | 271 | 1.0 | 5.0 | 0.00 | 0.00 | 0.00 | ||
| 20260901053046 | 61 | 234 | 0.0 | 2.0 | 0.00 | 0.00 | 0.00 |